Location: LDNL
(36.4545°S, 141.6685°E)
Time: 11:21:03
(UTC+10:00)

Vanguard 3 - Pass Details

Date: 30 January 2022
Orbit: 508 x 3258 km, 33.3° (Epoch: 25 May)

Event Time Altitude Azimuth Distance (km) Brightness Sun altitude
Rises 23:00:24 0° 323° (NW) 3,148 10.1 -23.2°
Enters shadow 23:01:38 - 328° (NNW) 2,744 9.7 -23.4°
Reaches altitude 10° 23:02:37 10° 333° (NNW) 2,452 - -23.5°
Maximum altitude 23:07:47 32° 36° (NE) 1,852 - -24.2°
Drops below altitude 10° 23:16:02 10° 94° (E) 4,001 - -25.3°
Exits shadow 23:17:49 - 97° (E) 4,574 10.7 -25.5°
Sets 23:20:45 0° 101° (E) 5,507 11.1 -25.9°
